Simultaneous Nadir Overpasses (SNOs) Predictions

Prediction of SNOs between FY3D and LANDSAT-8 Satellite Orbit:

Table of predicted SNOs for the next 14.0 days since TLE Epoch: 9/30/2023
Index Date (FY3D) Time (FY3D) Lat,Lon (FY3D) SZA (FY3D ) Date (LANDSAT-8) Time (LANDSAT-8) Lat,Lon (LANDSAT-8) SZA (LANDSAT-8 ) Distance(km) Time Diff (sec)
1 09/30/2023 17:26:36 -74.15, 98.40 103.03 09/30/2023 17:27:42 -74.03, 101.32 103.08 89.97 66
2 09/30/2023 18:17:06 73.36, -92.37 76.23 09/30/2023 18:17:20 73.38, -92.46 76.25 3.39 14
3 09/30/2023 19:07:50 -73.30, 75.08 103.82 09/30/2023 19:06:49 -73.31, 75.03 103.82 1.79 61
4 10/03/2023 08:53:37 74.04, 46.96 77.90 10/03/2023 08:54:44 73.95, 49.38 77.87 74.65 67
5 10/03/2023 09:44:09 -73.38,-144.14 102.72 10/03/2023 09:44:22 -73.41,-144.16 102.69 3.27 13
6 10/03/2023 10:34:54 73.33, 23.29 77.25 10/03/2023 10:33:49 73.33, 23.31 77.23 0.97 65
7 10/06/2023 00:20:40 -74.01, -4.70 101.11 10/06/2023 00:21:48 -73.90, -2.50 101.17 68.72 68
8 10/06/2023 01:11:13 73.38, 164.15 78.30 10/06/2023 01:11:23 73.39, 164.06 78.32 3.50 10
9 10/06/2023 02:01:57 -73.31, -28.39 101.75 10/06/2023 02:00:52 -73.33, -28.44 101.75 2.84 65
10 10/08/2023 15:47:41 73.88, -56.08 79.78 10/08/2023 15:48:50 73.79, -54.48 79.74 50.39 69
11 10/08/2023 16:38:17 -73.41, 112.35 100.65 10/08/2023 16:38:25 -73.42, 112.35 100.65 0.76 8
12 10/08/2023 17:29:01 73.32, -80.13 79.27 10/08/2023 17:27:52 73.33, -80.20 79.27 2.51 69
13 10/11/2023 07:14:43 -73.82,-107.66 99.27 10/11/2023 07:15:53 -73.74,-106.36 99.32 41.34 70
14 10/11/2023 08:05:21 73.43, 60.58 80.38 10/11/2023 08:05:24 73.43, 60.64 80.38 1.94 3
15 10/11/2023 08:56:05 -73.36,-131.95 99.68 10/11/2023 08:54:53 -73.37,-131.86 99.68 3.20 72
16 10/13/2023 22:41:42 73.65,-158.98 81.57 10/13/2023 22:42:54 73.56,-158.48 81.50 18.97 72
17 10/13/2023 23:32:23 -73.43, 8.85 98.63 10/13/2023 23:32:24 -73.45, 8.92 98.61 2.71 1



Historial Predications of SNOs between FY3D and LANDSAT-8
